Home   Weather   Paris Villa   Past weeks
Flag for USA

Past Weather in Paris Villa, Delaware, USA — Yesterday and Last 2 Weeks

Now
50 °F

Fog.


Feels Like: 50 °F
Forecast: 65 / 50 °F
Wind: No wind

Location: Dover Air Force Base

Current Time: Mar 28, 2020 at 11:34:43 pm

Latest Report: Mar 28, 2020 at 10:56 pm


Visibility: 1 mi

Pressure: 29.96 "Hg

Humidity: 100%

Dew Point: 50 °F

Location of Paris VillaLocation

Past Weather in Paris Villa — Graph

°F

Paris Villa Temperature Yesterday

Maximum temperature yesterday: 65 °F (at 5:56 pm)
Minimum temperature yesterday: 48 °F (at 3:11 am)
Average temperature yesterday: 54 °F

High & Low Weather Summary for the Past Weeks

 TemperatureHumidityPressure
High83 °F (Mar 20, 3:56 pm)100% (Mar 15, 2:06 am)30.61 "Hg (Mar 15, 2:06 am)
Low32 °F (Mar 16, 2:56 am)21% (Mar 13, 9:56 pm)29.79 "Hg (Mar 27, 5:21 am)
Average49 °F79%30.20 "Hg
* Reported Mar 13 9:56 pm — Mar 28 9:56 pm, Paris Villa. Weather by CustomWeather, © 2020

Note: Actual official high and low records may vary slightly from our data, if they occured in-between our weather recording intervals... More about our weather records

Paris Villa Weather History for the Previous 24 Hours

Scroll right to see more
 ConditionsComfort  
Time TempWeatherWind HumidityBarometerVisibility
9:56 pm
Sat, Mar 28
51 °FFog.10 mph100%30.00 "Hg2 mi
9:34 pm52 °FFog.12 mph100%29.99 "Hg2 mi
9:04 pm50 °FFog.9 mph100%29.97 "Hg2 mi
8:56 pm51 °FFog.9 mph100%29.98 "Hg2 mi
7:56 pm51 °FFog.7 mph100%29.96 "Hg4 mi
6:56 pm51 °FFog.8 mph100%29.96 "Hg3 mi
5:56 pm51 °FFog.8 mph100%29.97 "Hg3 mi
5:24 pm50 °FFog.13 mph100%29.95 "Hg2 mi
4:56 pm50 °FFog.7 mph100%29.95 "Hg2 mi
4:26 pm50 °FFog.9 mph100%29.96 "Hg2 mi
4:18 pm50 °FFog.10 mph100%29.96 "Hg4 mi
3:56 pm50 °FOvercast.7 mph96%29.97 "Hg10 mi
3:16 pm50 °FOvercast.13 mph88%29.98 "Hg10 mi
2:56 pm50 °FOvercast.13 mph89%29.99 "Hg10 mi
2:02 pm48 °FLow clouds.14 mph100%30.01 "Hg10 mi
12:56 pm50 °FOvercast.13 mph99%30.03 "Hg10 mi
12:24 pm50 °FMostly cloudy.14 mph100%30.02 "Hg10 mi
12:13 pm50 °FThundershowers. More clouds than sun.9 mph100%30.05 "Hg10 mi
11:44 am50 °FLight rain. More clouds than sun.14 mph100%30.03 "Hg10 mi
11:16 am50 °FLow clouds.14 mph100%30.06 "Hg10 mi
11:06 am50 °FMostly cloudy.12 mph100%30.06 "Hg10 mi
10:56 am50 °FMostly cloudy.13 mph100%30.05 "Hg10 mi
10:06 am50 °FLow clouds.9 mph100%30.08 "Hg10 mi
9:56 am51 °FMostly cloudy.7 mph100%30.10 "Hg10 mi
9:32 am52 °FRain. Fog.6 mph100%30.06 "Hg2 mi
8:56 am51 °FLight rain. Mostly cloudy.5 mph100%30.07 "Hg10 mi
7:56 am51 °FLight rain. Mostly cloudy.7 mph100%30.06 "Hg10 mi
6:56 am51 °FLight rain. Overcast.5 mph100%30.06 "Hg10 mi
5:56 am52 °FLight rain. Passing clouds.6 mph97%30.05 "Hg10 mi
5:14 am54 °FLight rain. Mostly cloudy.3 mph94%30.05 "Hg10 mi
4:56 am53 °FLight rain. Mostly cloudy.5 mph100%30.03 "Hg8 mi
4:30 am54 °FLight rain. Mostly cloudy.6 mph100%30.03 "Hg10 mi
3:57 am54 °FMostly cloudy.8 mph100%30.00 "Hg10 mi
3:56 am53 °FLight rain. Mostly cloudy.8 mph98%30.00 "Hg10 mi
3:32 am54 °FMostly cloudy.3 mph94%30.04 "Hg10 mi
2:56 am54 °FLight rain. Overcast.3 mph87%30.04 "Hg10 mi
1:56 am55 °FOvercast.3 mph82%30.04 "Hg10 mi
12:56 am54 °FOvercast.No wind82%30.05 "Hg10 mi
11:56 pm
Fri, Mar 27
54 °FMostly cloudy.No wind76%30.04 "Hg10 mi
Weather by CustomWeather, © 2020

See weather overview

Advertising